Time,TemperatureF,DewpointF,PressureIn,WindDirection,WindDirectionDegrees,WindSpeedMPH,WindSpeedGustMPH,Humidity,HourlyPrecipIn,Conditions,Clouds,dailyrainin,SoftwareType,DateUTC
2013-07-26 00:02:00,73.0,-99.9,-100.00,NNW,339,4.0,-999.0,-999,-99.99,,,0.00,,2013-07-26 04:02:00,
2013-07-26 00:32:00,71.0,-99.9,-100.00,NW,305,1.0,-999.0,-999,-99.99,,,0.00,,2013-07-26 04:32:00,
2013-07-26 01:02:00,70.0,-99.9,-100.00,West,265,1.0,-999.0,-999,-99.99,,,0.00,,2013-07-26 05:02:00,
2013-07-26 01:22:00,69.0,-99.9,-100.00,NW,309,1.0,-999.0,-999,-99.99,,,0.00,,2013-07-26 05:22:00,
2013-07-26 01:33:00,69.0,-99.9,-100.00,NW,321,2.0,-999.0,-999,-99.99,,,0.00,,2013-07-26 05:33:00,
2013-07-26 01:43:00,69.0,-99.9,-100.00,NW,321,2.0,-999.0,-999,-99.99,,,0.00,,2013-07-26 05:43:00,
2013-07-26 02:02:00,68.0,-99.9,-100.00,East,92,1.0,-999.0,-999,-99.99,,,0.00,,2013-07-26 06:02:00,
2013-07-26 02:22:00,68.0,-99.9,-100.00,NNW,342,1.0,-999.0,-999,-99.99,,,0.00,,2013-07-26 06:22:00,
2013-07-26 02:33:00,67.0,-99.9,-100.00,WNW,300,2.0,-999.0,-999,-99.99,,,0.00,,2013-07-26 06:33:00,
2013-07-26 02:43:00,67.0,-99.9,-100.00,WNW,302,2.0,-999.0,-999,-99.99,,,0.00,,2013-07-26 06:43:00,
2013-07-26 03:02:00,65.0,-99.9,-100.00,NW,309,2.0,-999.0,-999,-99.99,,,-99.99,,2013-07-26 07:02:00,
2013-07-26 03:12:00,65.0,-99.9,-100.00,WNW,302,2.0,-999.0,-999,-99.99,,,0.00,,2013-07-26 07:12:00,
2013-07-26 03:30:00,65.0,-99.9,-100.00,WNW,299,2.0,-999.0,-999,-99.99,,,0.00,,2013-07-26 07:30:00,
2013-07-26 03:32:00,66.0,-99.9,-100.00,NNW,347,1.0,-999.0,-999,-99.99,,,0.00,,2013-07-26 07:32:00,
2013-07-26 03:43:00,66.0,-99.9,-100.00,WNW,298,1.0,-999.0,-999,-99.99,,,0.00,,2013-07-26 07:43:00,
2013-07-26 04:02:00,65.0,-99.9,-100.00,NW,315,2.0,-999.0,-999,-99.99,,,0.00,,2013-07-26 08:02:00,
2013-07-26 04:12:00,65.0,-99.9,-100.00,WNW,299,2.0,-999.0,-999,-99.99,,,0.00,,2013-07-26 08:12:00,
2013-07-26 04:22:00,65.0,-99.9,-100.00,WNW,299,2.0,-999.0,-999,-99.99,,,0.00,,2013-07-26 08:22:00,
2013-07-26 04:30:00,66.0,-99.9,-100.00,NW,308,2.0,-999.0,-999,-99.99,,,0.00,,2013-07-26 08:30:00,
2013-07-26 04:44:00,64.0,-99.9,-100.00,West,261,1.0,-999.0,-999,-99.99,,,0.00,,2013-07-26 08:44:00,
2013-07-26 04:52:00,65.0,-99.9,-100.00,NW,313,2.0,-999.0,-999,-99.99,,,0.00,,2013-07-26 08:52:00,
2013-07-26 05:00:00,63.0,-99.9,-100.00,NW,306,2.0,-999.0,-999,-99.99,,,0.00,,2013-07-26 09:00:00,
2013-07-26 05:02:00,65.0,-99.9,-100.00,NW,313,2.0,-999.0,-999,-99.99,,,0.00,,2013-07-26 09:02:00,
2013-07-26 05:12:00,66.0,-99.9,-100.00,NW,308,2.0,-999.0,-999,-99.99,,,0.00,,2013-07-26 09:12:00,
2013-07-26 05:22:00,66.0,-99.9,-100.00,NW,308,2.0,-999.0,-999,-99.99,,,0.00,,2013-07-26 09:22:00,
2013-07-26 05:30:00,64.0,-99.9,-100.00,NW,315,1.0,-999.0,-999,-99.99,,,0.00,,2013-07-26 09:30:00,
2013-07-26 05:43:00,63.0,-99.9,-100.00,NW,306,2.0,-999.0,-999,-99.99,,,0.00,,2013-07-26 09:43:00,
2013-07-26 05:52:00,63.0,-99.9,-100.00,NW,306,2.0,-999.0,-999,-99.99,,,0.00,,2013-07-26 09:52:00,
2013-07-26 06:00:00,64.0,-99.9,-100.00,NNW,347,1.0,-999.0,-999,-99.99,,,0.00,,2013-07-26 10:00:00,
2013-07-26 06:22:00,64.0,-99.9,-100.00,NW,315,1.0,-999.0,-999,-99.99,,,0.00,,2013-07-26 10:22:00,
2013-07-26 06:43:00,64.0,-99.9,-100.00,NNW,347,1.0,-999.0,-999,-99.99,,,0.00,,2013-07-26 10:43:00,
2013-07-26 06:53:00,64.0,-99.9,-100.00,NNW,347,1.0,-999.0,-999,-99.99,,,0.00,,2013-07-26 10:53:00,
2013-07-26 07:12:00,62.0,-99.9,-100.00,NW,320,2.0,-999.0,-999,-99.99,,,0.00,,2013-07-26 11:12:00,
2013-07-26 07:22:00,62.0,-99.9,-100.00,NW,320,2.0,-999.0,-999,-99.99,,,0.00,,2013-07-26 11:22:00,
2013-07-26 07:32:00,63.0,-99.9,-100.00,NNW,328,1.0,-999.0,-999,-99.99,,,0.00,,2013-07-26 11:32:00,
2013-07-26 07:43:00,63.0,-99.9,-100.00,WNW,285,1.0,-999.0,-999,-99.99,,,0.00,,2013-07-26 11:43:00,
2013-07-26 07:52:00,63.0,-99.9,-100.00,WNW,285,1.0,-999.0,-999,-99.99,,,0.00,,2013-07-26 11:52:00,
2013-07-26 08:02:00,64.0,-99.9,-100.00,ENE,69,1.0,-999.0,-999,-99.99,,,0.00,,2013-07-26 12:02:00,
2013-07-26 08:12:00,64.0,-99.9,-100.00,NW,323,2.0,-999.0,-999,-99.99,,,0.00,,2013-07-26 12:12:00,
2013-07-26 08:30:00,68.0,-99.9,-100.00,ENE,76,2.0,-999.0,-999,-99.99,,,0.00,,2013-07-26 12:30:00,
2013-07-26 08:33:00,64.0,-99.9,-100.00,East,95,1.0,-999.0,-999,-99.99,,,0.00,,2013-07-26 12:33:00,
2013-07-26 08:43:00,64.0,-99.9,-100.00,East,95,1.0,-999.0,-999,-99.99,,,0.00,,2013-07-26 12:43:00,
2013-07-26 08:53:00,65.0,-99.9,-100.00,NNE,28,1.0,-999.0,-999,-99.99,,,0.00,,2013-07-26 12:53:00,
2013-07-26 09:02:00,66.0,-99.9,-100.00,NW,319,2.0,-999.0,-999,-99.99,,,0.00,,2013-07-26 13:02:00,
2013-07-26 09:23:00,68.0,-99.9,-100.00,ENE,76,2.0,-999.0,-999,-99.99,,,0.00,,2013-07-26 13:23:00,
2013-07-26 09:43:00,70.0,-99.9,-100.00,ENE,67,5.0,-999.0,-999,-99.99,,,0.00,,2013-07-26 13:43:00,
2013-07-26 10:03:00,70.0,-99.9,-100.00,ENE,73,5.0,-999.0,-999,-99.99,,,0.00,,2013-07-26 14:03:00,
2013-07-26 10:22:00,70.0,-99.9,-100.00,ENE,74,4.0,-999.0,-999,-99.99,,,0.00,,2013-07-26 14:22:00,
2013-07-26 10:33:00,71.0,-99.9,-100.00,ENE,64,3.0,-999.0,-999,-99.99,,,0.00,,2013-07-26 14:33:00,
2013-07-26 10:43:00,71.0,-99.9,-100.00,NE,37,3.0,-999.0,-999,-99.99,,,0.00,,2013-07-26 14:43:00,
2013-07-26 10:53:00,71.0,-99.9,-100.00,NE,37,3.0,-999.0,-999,-99.99,,,0.00,,2013-07-26 14:53:00,
2013-07-26 11:03:00,72.0,-99.9,-100.00,NE,52,3.0,-999.0,-999,-99.99,,,0.00,,2013-07-26 15:03:00,
2013-07-26 11:12:00,72.0,-99.9,-100.00,NE,52,3.0,-999.0,-999,-99.99,,,0.00,,2013-07-26 15:12:00,
2013-07-26 11:15:00,74.0,-99.9,-100.00,East,82,3.0,-999.0,-999,-99.99,,,0.00,,2013-07-26 15:15:00,
2013-07-26 11:22:00,72.0,-99.9,-100.00,East,82,1.0,-999.0,-999,-99.99,,,-99.99,,2013-07-26 15:22:00,
2013-07-26 11:33:00,72.0,-99.9,-100.00,SE,137,3.0,-999.0,-999,-99.99,,,0.00,,2013-07-26 15:33:00,
2013-07-26 11:43:00,73.0,-99.9,-100.00,East,93,3.0,-999.0,-999,-99.99,,,0.00,,2013-07-26 15:43:00,
2013-07-26 11:53:00,73.0,-99.9,-100.00,East,93,3.0,-999.0,-999,-99.99,,,0.00,,2013-07-26 15:53:00,
2013-07-26 12:22:00,75.0,-99.9,-100.00,NNE,25,3.0,-999.0,-999,-99.99,,,0.00,,2013-07-26 16:22:00,
2013-07-26 12:43:00,75.0,-99.9,-100.00,East,98,4.0,-999.0,-999,-99.99,,,0.00,,2013-07-26 16:43:00,
2013-07-26 13:03:00,76.0,-99.9,-100.00,SE,128,4.0,-999.0,-999,-99.99,,,0.00,,2013-07-26 17:03:00,
2013-07-26 13:33:00,77.0,-99.9,-100.00,West,265,3.0,-999.0,-999,-99.99,,,0.00,,2013-07-26 17:33:00,
2013-07-26 13:43:00,78.0,-99.9,-100.00,SSE,152,2.0,-999.0,-999,-99.99,,,0.00,,2013-07-26 17:43:00,
2013-07-26 13:53:00,78.0,-99.9,-100.00,SSE,152,2.0,-999.0,-999,-99.99,,,0.00,,2013-07-26 17:53:00,
2013-07-26 14:12:00,78.0,-99.9,-100.00,SW,223,3.0,-999.0,-999,-99.99,,,0.00,,2013-07-26 18:12:00,
2013-07-26 14:33:00,79.0,-99.9,-100.00,South,189,5.0,-999.0,-999,-99.99,,,0.00,,2013-07-26 18:33:00,
2013-07-26 14:53:00,80.0,-99.9,-100.00,SW,217,5.0,-999.0,-999,-99.99,,,0.00,,2013-07-26 18:53:00,
2013-07-26 15:03:00,80.0,-99.9,-100.00,SSW,192,4.0,-999.0,-999,-99.99,,,0.00,,2013-07-26 19:03:00,
2013-07-26 15:13:00,81.0,-99.9,-100.00,SSW,194,4.0,-999.0,-999,-99.99,,,-99.99,,2013-07-26 19:13:00,
2013-07-26 15:32:00,82.0,-99.9,-100.00,SSW,199,5.0,-999.0,-999,-99.99,,,0.00,,2013-07-26 19:32:00,
2013-07-26 15:43:00,82.0,-99.9,-100.00,SSW,204,4.0,-999.0,-999,-99.99,,,0.00,,2013-07-26 19:43:00,
2013-07-26 15:53:00,82.0,-99.9,-100.00,SSW,204,4.0,-999.0,-999,-99.99,,,0.00,,2013-07-26 19:53:00,
2013-07-26 16:03:00,82.0,-99.9,-100.00,WSW,250,4.0,-999.0,-999,-99.99,,,0.00,,2013-07-26 20:03:00,
2013-07-26 16:12:00,82.0,-99.9,-100.00,SW,217,4.0,-999.0,-999,-99.99,,,-99.99,,2013-07-26 20:12:00,
2013-07-26 16:32:00,82.0,-99.9,-100.00,SSW,207,4.0,-999.0,-999,-99.99,,,0.00,,2013-07-26 20:32:00,
2013-07-26 16:43:00,82.0,-99.9,-100.00,SW,226,5.0,-999.0,-999,-99.99,,,0.00,,2013-07-26 20:43:00,
2013-07-26 16:53:00,82.0,-99.9,-100.00,SW,226,5.0,-999.0,-999,-99.99,,,0.00,,2013-07-26 20:53:00,
2013-07-26 17:02:00,83.0,-99.9,-100.00,WSW,247,5.0,-999.0,-999,-99.99,,,0.00,,2013-07-26 21:02:00,
2013-07-26 17:12:00,83.0,-99.9,-100.00,WSW,247,5.0,-999.0,-999,-99.99,,,0.00,,2013-07-26 21:12:00,
2013-07-26 17:32:00,83.0,-99.9,-100.00,WSW,237,6.0,-999.0,-999,-99.99,,,0.00,,2013-07-26 21:32:00,
2013-07-26 17:53:00,83.0,-99.9,-100.00,SW,219,5.0,-999.0,-999,-99.99,,,0.00,,2013-07-26 21:53:00,
2013-07-26 18:02:00,84.0,-99.9,-100.00,SSW,193,6.0,-999.0,-999,-99.99,,,0.00,,2013-07-26 22:02:00,
2013-07-26 18:12:00,84.0,-99.9,-100.00,SSW,193,6.0,-999.0,-999,-99.99,,,0.00,,2013-07-26 22:12:00,
2013-07-26 18:22:00,84.0,-99.9,-100.00,SSW,192,5.0,-999.0,-999,-99.99,,,-99.99,,2013-07-26 22:22:00,
2013-07-26 18:33:00,84.0,-99.9,-100.00,SSW,204,5.0,-999.0,-999,-99.99,,,0.00,,2013-07-26 22:33:00,
2013-07-26 18:43:00,84.0,-99.9,-100.00,SSW,205,4.0,-999.0,-999,-99.99,,,0.00,,2013-07-26 22:43:00,
2013-07-26 19:02:00,84.0,-99.9,-100.00,South,191,4.0,-999.0,-999,-99.99,,,0.00,,2013-07-26 23:02:00,
2013-07-26 19:12:00,84.0,-99.9,-100.00,SSW,196,4.0,-999.0,-999,-99.99,,,-99.99,,2013-07-26 23:12:00,
2013-07-26 19:22:00,84.0,-99.9,-100.00,SSW,196,4.0,-999.0,-999,-99.99,,,-99.99,,2013-07-26 23:22:00,
2013-07-26 19:32:00,84.0,-99.9,-100.00,SSW,207,3.0,-999.0,-999,-99.99,,,0.00,,2013-07-26 23:32:00,
2013-07-26 19:43:00,84.0,-99.9,-100.00,SSW,211,2.0,-999.0,-999,-99.99,,,0.00,,2013-07-26 23:43:00,
2013-07-26 19:53:00,84.0,-99.9,-100.00,SSW,211,2.0,-999.0,-999,-99.99,,,0.00,,2013-07-26 23:53:00,
2013-07-26 20:02:00,83.0,-99.9,-100.00,SSW,209,2.0,-999.0,-999,-99.99,,,0.00,,2013-07-27 00:02:00,
2013-07-26 20:12:00,83.0,-99.9,-100.00,SW,226,1.0,-999.0,-999,-99.99,,,-99.99,,2013-07-27 00:12:00,
2013-07-26 20:32:00,82.0,-99.9,-100.00,WNW,294,4.0,-999.0,-999,-99.99,,,0.00,,2013-07-27 00:32:00,
2013-07-26 20:43:00,82.0,-99.9,-100.00,WNW,294,4.0,-999.0,-999,-99.99,,,0.00,,2013-07-27 00:43:00,
2013-07-26 21:02:00,81.0,-99.9,-100.00,WNW,297,4.0,-999.0,-999,-99.99,,,0.00,,2013-07-27 01:02:00,
2013-07-26 21:12:00,80.0,-99.9,-100.00,NW,309,3.0,-999.0,-999,-99.99,,,-99.99,,2013-07-27 01:12:00,
2013-07-26 21:22:00,80.0,-99.9,-100.00,NW,309,3.0,-999.0,-999,-99.99,,,-99.99,,2013-07-27 01:22:00,
2013-07-26 21:33:00,79.0,-99.9,-100.00,WNW,294,3.0,-999.0,-999,-99.99,,,0.00,,2013-07-27 01:33:00,
2013-07-26 21:44:00,78.0,-99.9,-100.00,WNW,299,1.0,-999.0,-999,-99.99,,,0.00,,2013-07-27 01:44:00,
2013-07-26 22:02:00,77.0,-99.9,-100.00,WNW,289,1.0,-999.0,-999,-99.99,,,0.00,,2013-07-27 02:02:00,
2013-07-26 22:12:00,77.0,-99.9,-100.00,SSW,195,1.0,-999.0,-999,-99.99,,,-99.99,,2013-07-27 02:12:00,
2013-07-26 22:23:00,77.0,-99.9,-100.00,SSW,195,1.0,-999.0,-999,-99.99,,,-99.99,,2013-07-27 02:23:00,
2013-07-26 22:32:00,75.0,-99.9,-100.00,West,279,1.0,-999.0,-999,-99.99,,,0.00,,2013-07-27 02:32:00,
2013-07-26 22:43:00,74.0,-99.9,-100.00,NW,312,2.0,-999.0,-999,-99.99,,,0.00,,2013-07-27 02:43:00,
2013-07-26 22:53:00,74.0,-99.9,-100.00,NW,312,2.0,-999.0,-999,-99.99,,,0.00,,2013-07-27 02:53:00,
2013-07-26 23:03:00,74.0,-99.9,-100.00,ESE,111,1.0,-999.0,-999,-99.99,,,0.00,,2013-07-27 03:03:00,
2013-07-26 23:22:00,74.0,-99.9,-100.00,West,275,1.0,-999.0,-999,-99.99,,,0.00,,2013-07-27 03:22:00,
2013-07-26 23:30:00,73.0,-99.9,-100.00,SSW,212,1.0,-999.0,-999,-99.99,,,0.00,,2013-07-27 03:30:00,
2013-07-26 23:44:00,74.0,-99.9,-100.00,SSW,211,1.0,-999.0,-999,-99.99,,,0.00,,2013-07-27 03:44:00,
2013-07-26 23:52:00,74.0,-99.9,-100.00,SSW,211,1.0,-999.0,-999,-99.99,,,0.00,,2013-07-27 03:52:00,